• In Hungary
  • List of Countries
  • For 7 days
  • Water Temperature
  • Satellite Maps
  • Weather Map
  • News
  • Weather Widgets
  • user-avatar
    Login

    Hourly Weather Itatka

    Today, 26 September, Wednesday

    Time Temperature Precipitation Wind Pressure Humidity
    00:00 +12°C° 0 mm 2 mps 748 mmHg 98%
    01:00 +12°C° 0 mm 2 mps 748 mmHg 98%
    02:00 +12°C° 0 mm 2 mps 748 mmHg 98%
    03:00 +12°C° 0 mm 2 mps 748 mmHg 98%
    04:00 +12°C° 0.1 mm 2 mps 748 mmHg 98%
    05:00 +12°C° 0.1 mm 2 mps 749 mmHg 98%
    06:00 +12°C° 0.1 mm 2 mps 749 mmHg 98%
    07:00 +12°C° 0.1 mm 2 mps 749 mmHg 98%
    08:00 +12°C° 0.1 mm 1 mps 749 mmHg 97%
    09:00 +13°C° 0.1 mm 1 mps 749 mmHg 96%
    10:00 +14°C° 0.1 mm 1 mps 749 mmHg 94%
    11:00 +14°C° 0.1 mm 2 mps 750 mmHg 92%
    12:00 +15°C° 0.1 mm 2 mps 750 mmHg 90%
    13:00 +15°C° 0.1 mm 2 mps 750 mmHg 90%
    14:00 +15°C° 0.1 mm 2 mps 750 mmHg 90%
    15:00 +15°C° 0.1 mm 2 mps 750 mmHg 90%
    16:00 +15°C° 0 mm 2 mps 750 mmHg 92%
    17:00 +14°C° 0 mm 2 mps 750 mmHg 94%
    18:00 +14°C° 0 mm 2 mps 750 mmHg 96%
    19:00 +14°C° 0 mm 2 mps 750 mmHg 96%
    20:00 +13°C° 0 mm 2 mps 750 mmHg 97%
    21:00 +13°C° 0 mm 2 mps 750 mmHg 97%
    22:00 +13°C° 0 mm 2 mps 750 mmHg 97%
    23:00 +13°C° 0 mm 2 mps 750 mmHg 97%

    Tomorrow, 27 September, Thursday

    Time Temperature Precipitation Wind Pressure Humidity
    00:00 +12°C° 0 mm 2 mps 750 mmHg 98%
    01:00 +12°C° 0 mm 2 mps 750 mmHg 98%
    02:00 +12°C° 0 mm 2 mps 750 mmHg 98%
    03:00 +12°C° 0 mm 2 mps 750 mmHg 98%
    04:00 +12°C° 0 mm 2 mps 751 mmHg 98%
    05:00 +12°C° 0 mm 2 mps 751 mmHg 98%
    06:00 +10°C° 0 mm 2 mps 751 mmHg 98%
    07:00 +13°C° 0 mm 2 mps 751 mmHg 96%
    08:00 +14°C° 0 mm 2 mps 751 mmHg 94%
    09:00 +15°C° 0 mm 2 mps 751 mmHg 93%
    10:00 +16°C° 0 mm 2 mps 751 mmHg 89%
    11:00 +17°C° 0 mm 2 mps 751 mmHg 84%
    12:00 +18°C° 0 mm 2 mps 752 mmHg 80%
    13:00 +19°C° 0 mm 3 mps 751 mmHg 76%
    14:00 +19°C° 0 mm 3 mps 751 mmHg 71%
    15:00 +19°C° 0 mm 3 mps 751 mmHg 67%
    16:00 +18°C° 0 mm 2 mps 751 mmHg 73%
    17:00 +16°C° 0 mm 2 mps 752 mmHg 79%
    18:00 +15°C° 0 mm 1 mps 752 mmHg 85%
    19:00 +14°C° 0 mm 1 mps 752 mmHg 87%
    20:00 +13°C° 0 mm 1 mps 752 mmHg 89%
    21:00 +12°C° 0 mm 1 mps 752 mmHg 91%
    22:00 +12°C° 0 mm 1 mps 752 mmHg 92%
    23:00 +11°C° 0 mm 1 mps 752 mmHg 92%

    Day after tomorrow, 28 September, Friday

    Time Temperature Precipitation Wind Pressure Humidity
    00:00 +11°C° 0 mm 1 mps 752 mmHg 92%
    01:00 +10°C° 0 mm 1 mps 751 mmHg 92%
    02:00 +10°C° 0 mm 1 mps 751 mmHg 93%
    03:00 +10°C° 0 mm 1 mps 751 mmHg 93%
    04:00 +10°C° 0 mm 1 mps 751 mmHg 93%
    05:00 +9°C° 0 mm 1 mps 751 mmHg 93%
    06:00 +9°C° 0 mm 1 mps 751 mmHg 94%
    07:00 +10°C° 0 mm 1 mps 751 mmHg 89%
    08:00 +12°C° 0 mm 1 mps 751 mmHg 85%
    09:00 +13°C° 0 mm 1 mps 750 mmHg 81%
    10:00 +15°C° 0 mm 1 mps 750 mmHg 75%
    11:00 +16°C° 0 mm 1 mps 750 mmHg 69%
    12:00 +18°C° 0 mm 2 mps 749 mmHg 63%
    13:00 +18°C° 0 mm 2 mps 749 mmHg 62%
    14:00 +19°C° 0 mm 2 mps 748 mmHg 62%
    15:00 +19°C° 0 mm 2 mps 748 mmHg 61%
    16:00 +17°C° 0 mm 2 mps 747 mmHg 69%
    17:00 +16°C° 0 mm 2 mps 747 mmHg 78%
    18:00 +14°C° 0 mm 2 mps 747 mmHg 86%
    19:00 +13°C° 0 mm 2 mps 746 mmHg 88%
    20:00 +13°C° 0 mm 2 mps 746 mmHg 91%
    21:00 +12°C° 0 mm 2 mps 746 mmHg 94%
    22:00 +12°C° 0 mm 2 mps 746 mmHg 94%
    23:00 +10°C° 0 mm 2 mps 745 mmHg 95%

    29 September, Saturday

    Time Temperature Precipitation Wind Pressure Humidity
    00:00 +10°C° 0 mm 2 mps 745 mmHg 96%
    01:00 +10°C° 0 mm 2 mps 744 mmHg 96%
    02:00 +9°C° 0 mm 2 mps 744 mmHg 96%
    03:00 +9°C° 0 mm 2 mps 743 mmHg 95%
    04:00 +9°C° 0 mm 2 mps 743 mmHg 95%
    05:00 +9°C° 0 mm 2 mps 743 mmHg 95%
    06:00 +9°C° 0 mm 2 mps 743 mmHg 95%
    07:00 +10°C° 0 mm 3 mps 743 mmHg 90%
    08:00 +11°C° 0 mm 3 mps 743 mmHg 85%
    09:00 +12°C° 0 mm 4 mps 743 mmHg 80%
    10:00 +12°C° 0.4 mm 4 mps 744 mmHg 82%
    11:00 +11°C° 0.4 mm 4 mps 745 mmHg 84%
    12:00 +11°C° 0.4 mm 4 mps 745 mmHg 86%
    13:00 +12°C° 0 mm 4 mps 746 mmHg 79%
    14:00 +12°C° 0 mm 4 mps 747 mmHg 72%
    15:00 +13°C° 0 mm 4 mps 747 mmHg 66%
    16:00 +12°C° 0 mm 4 mps 748 mmHg 69%
    17:00 +11°C° 0 mm 3 mps 748 mmHg 72%
    18:00 +9°C° 0 mm 2 mps 749 mmHg 76%
    19:00 +9°C° 0 mm 3 mps 749 mmHg 76%
    20:00 +8°C° 0 mm 3 mps 749 mmHg 75%
    21:00 +8°C° 0 mm 3 mps 749 mmHg 75%
    22:00 +8°C° 0 mm 3 mps 749 mmHg 74%
    23:00 +7°C° 0 mm 4 mps 749 mmHg 72%

    30 September, Sunday

    Time Temperature Precipitation Wind Pressure Humidity
    00:00 +7°C° 0 mm 4 mps 749 mmHg 71%
    01:00 +7°C° 0 mm 4 mps 749 mmHg 70%
    02:00 +7°C° 0 mm 4 mps 749 mmHg 69%
    03:00 +7°C° 0 mm 4 mps 748 mmHg 69%
    04:00 +7°C° 0 mm 4 mps 748 mmHg 68%
    05:00 +7°C° 0 mm 5 mps 748 mmHg 68%
    06:00 +6°C° 0 mm 5 mps 748 mmHg 68%
    07:00 +7°C° 0 mm 5 mps 749 mmHg 66%
    08:00 +8°C° 0 mm 5 mps 749 mmHg 64%
    09:00 +9°C° 0 mm 5 mps 749 mmHg 61%
    10:00 +10°C° 0 mm 5 mps 749 mmHg 59%
    11:00 +12°C° 0 mm 5 mps 749 mmHg 57%
    12:00 +13°C° 0 mm 5 mps 749 mmHg 56%
    13:00 +14°C° 0 mm 5 mps 749 mmHg 56%
    14:00 +14°C° 0 mm 5 mps 749 mmHg 56%
    15:00 +15°C° 0 mm 5 mps 749 mmHg 57%
    16:00 +13°C° 0 mm 4 mps 749 mmHg 64%
    17:00 +12°C° 0 mm 3 mps 749 mmHg 71%
    18:00 +10°C° 0 mm 2 mps 749 mmHg 77%
    19:00 +10°C° 0 mm 2 mps 749 mmHg 81%
    20:00 +9°C° 0 mm 2 mps 749 mmHg 85%
    21:00 +8°C° 0 mm 2 mps 750 mmHg 89%
    22:00 +8°C° 0 mm 2 mps 749 mmHg 89%
    23:00 +7°C° 0 mm 2 mps 749 mmHg 90%

    1 October, Monday

    Time Temperature Precipitation Wind Pressure Humidity
    00:00 +8°C° 0 mm 1 mps 749 mmHg 90%
    01:00 +8°C° 0 mm 1 mps 749 mmHg 88%
    02:00 +8°C° 0 mm 1 mps 749 mmHg 85%
    03:00 +7°C° 0 mm 1 mps 749 mmHg 83%
    04:00 +7°C° 0 mm 1 mps 749 mmHg 82%
    05:00 +8°C° 0 mm 1 mps 749 mmHg 81%
    06:00 +7°C° 0 mm 0 mps 749 mmHg 80%
    07:00 +7°C° 0 mm 0 mps 749 mmHg 78%
    08:00 +8°C° 0 mm 0 mps 748 mmHg 76%
    09:00 +9°C° 0 mm 0 mps 748 mmHg 74%
    10:00 +10°C° 0 mm 0 mps 748 mmHg 72%
    11:00 +11°C° 0 mm 1 mps 747 mmHg 70%
    12:00 +12°C° 0 mm 1 mps 747 mmHg 68%
    13:00 +12°C° 0 mm 1 mps 746 mmHg 68%
    14:00 +12°C° 0 mm 1 mps 746 mmHg 68%
    15:00 +12°C° 0 mm 2 mps 745 mmHg 68%
    16:00 +10°C° 0 mm 2 mps 745 mmHg 72%
    17:00 +9°C° 0 mm 2 mps 745 mmHg 76%
    18:00 +8°C° 0 mm 2 mps 744 mmHg 80%
    19:00 +8°C° 0 mm 2 mps 744 mmHg 81%
    20:00 +8°C° 0 mm 1 mps 744 mmHg 82%
    21:00 +8°C° 0 mm 1 mps 743 mmHg 83%
    22:00 +8°C° 0 mm 1 mps 743 mmHg 83%
    23:00 +8°C° 0 mm 1 mps 743 mmHg 84%
    Show more